Regional Weather Roundup
Issued by NWS

Home | Current Version | Previous Version | Graphics & Text | Print | Product List | Glossary On
Versions: 1 2 3 4 5 6 7 8 9 10 11 12 13 14 15 16 17 18 19 20 21 22 23 24 25 26 27 28 29 30 31 32 33 34 35 36 37 38 39 40 41 42 43 44 45 46 47 48 49 50
956
ASUS45 KBOU 020207
RWRCO

WEATHER ROUNDUP FOR COLORADO
NATIONAL WEATHER SERVICE DENVER/BOULDER CO
700 PM MST THU DEC 01 2016

NOTE: "FAIR" INDICATES FEW OR NO CLOUDS BELOW 12000 FEET WITH NO
SIGNIFICANT WEATHER AND/OR OBSTRUCTIONS TO VISIBILITY.

COZ001>005-013-030-031-020300-
...NORTHWEST COLORADO...

CITY           SKY/WX    TMP DP  RH WIND       PRES   REMARKS
CRAIG          CLOUDY    25  21  85 CALM      30.01R
HAYDEN         CLOUDY    23  18  80 CALM      29.99S
MEEKER         FLURRIES  23  20  88 NE3       30.00R
MOUNT WERNER   NOT AVBL
STEAMBOAT SPGS CLOUDY    21  19  91 CALM      29.99R
WALDEN           N/A     18  12  79 CALM      29.95R
$$

COZ006>008-011-020300-
...WEST CENTRAL VALLEYS...

CITY           SKY/WX    TMP DP  RH WIND       PRES   REMARKS
GRAND JUNCTION MOCLDY    30  21  69 CALM      29.99S
MONTROSE       MOCLDY    27  17  66 E3        30.02R
EAGLE          CLOUDY    28  18  64 W13       30.00R WCI  18
RIFLE          CLOUDY    29  22  75 CALM      30.01R
DELTA          NOT AVBL
NUCLA          CLOUDY    32  16  51 NW6       30.00S WCI  26
$$

COZ017>023-064>068-020300-
...SOUTHWEST COLORADO...

CITY           SKY/WX    TMP DP  RH WIND       PRES   REMARKS
DURANGO        FAIR      28  13  53 CALM      29.96S
CORTEZ         CLOUDY    24  18  77 E5        29.97S WCI  18
PAGOSA SPRINGS FAIR      18  13  83 NE3       29.97R
TELLURIDE      CLOUDY    21  12  66 CALM      29.95S
WOLF CREEK PAS FAIR       9   9 100 SW9       29.97R WCI  -5
$$

COZ009-010-012-014-032>034-037-058>063-020300-
...CENTRAL COLORADO...

CITY           SKY/WX    TMP DP  RH WIND       PRES   REMARKS
ASPEN          LGT SNOW  20  16  84 CALM      29.95R FOG
BUENA VISTA    MOCLDY    25   7  45 SW5       29.91R WCI  20
COPPER MTN     CLOUDY    14   9  79 MISG      29.88R
BERTHOUD PASS  CLOUDY     5  -6  61 W9G17     29.86S WCI  -9
COTTONWOOD PAS FAIR      27   9  46 W7        29.90R WCI  19
GUNNISON       FAIR      20  12  71 CALM      29.96R
KREMMLING      LGT SNOW  27  21  80 CALM      29.98R
LEADVILLE      CLOUDY    12   5  73 N3        29.88R
MONARCH PASS     N/A      9   5  85 SW20      29.98R WCI -11
SALIDA         FAIR      29   8  40 CALM      29.99R
SUNLIGHT       LGT SNOW N/A N/A N/A SW7       29.95R
WILKERSON PASS CLOUDY    14   5  67 CALM      29.91R
$$

COZ069>075-020300-
...SAN LUIS VALLEY/SANGRE DE CRISTO MOUNTAINS...

CITY           SKY/WX    TMP DP  RH WIND       PRES   REMARKS
ALAMOSA        CLOUDY    20  10  65 N5        29.95R WCI  13
LA VETA PASS   CLOUDY    18   9  68 NE16G22   29.92R WCI   3
SAGUACHE       CLOUDY    21   9  58 N8        29.96R WCI  12
$$

COZ035-036-038>040-020300-
...NORTHERN COLORADO FRONT RANGE...

CITY           SKY/WX    TMP DP  RH WIND       PRES   REMARKS
DENVER INTL AP FAIR      30  10  43 E9        29.95R WCI  22
DMNS CITY PARK   N/A     31   6  34 N5        29.97R WCI  26
AURORA         MOCLDY    24   7  47 E8        29.95R WCI  15
FRONT RANGE AP PTCLDY    32  10  40 E8        29.97R WCI  25
ERIE MUNI ARPT CLOUDY    30   9  40 CALM      29.98R
BOULDER MUN AP CLOUDY    34  10  37 CALM      29.97R
CENTENNIAL     FAIR      29   7  39 SE8       29.94R WCI  21
BROOMFIELD     PTCLDY    32   7  34 NW8       29.97R WCI  25
FORT COLLINS   FAIR      32   9  37 CALM      29.98R
LONGMONT       CLOUDY    31  13  45 CALM      30.00R
$$

COZ041-046-047-076>085-087-088-020300-
...PIKES PEAK/PALMER DIVIDE AND SOUTHERN FOOTHILLS...

CITY           SKY/WX    TMP DP  RH WIND       PRES   REMARKS
COLO. SPRINGS  FAIR      21   0  39 NE6       29.96R WCI  13
A. F. ACADEMY  FAIR      26   3  37 SE5       29.95R WCI  20
SCHRIEVER AFB  NOT AVBL
ELLICOTT       FAIR     N/A N/A N/A SE5       29.95R
FALCON         FAIR      21   2  44 S6        29.96R WCI  14
FORT CARSON    FAIR      30   5  34 SW6       29.95R WCI  24
LIMON          FAIR      11   3  70 N6        29.98R WCI   1
MONUMENT HILL  FAIR      18   5  57 S8        29.95R WCI   7
TRINIDAD       FAIR      26   6  42 W7        29.96R WCI  18
$$

COZ042>045-048>051-090-091-020300-
...NORTHEAST COLORADO...

CITY           SKY/WX    TMP DP  RH WIND       PRES   REMARKS
GREELEY ARPT   MOCLDY    27  10  49 NE3       29.99R
AKRON          FAIR      31  11  43 CALM      29.98R
BURLINGTON     FAIR      23   5  46 SW7       29.99R WCI  15
WRAY           NOT AVBL
STERLING       FAIR      28  14  54 CALM      29.98R
HOLYOKE        FAIR      23   9  54 CALM      29.99R
FORT MORGAN    FAIR      27   8  45 N8        30.00R WCI  18
$$

COZ086-089-092>099-020300-
...SOUTHEAST COLORADO...

CITY           SKY/WX    TMP DP  RH WIND       PRES   REMARKS
PUEBLO         FAIR      25   9  50 N3        29.97R
LA JUNTA       FAIR      28  12  51 NE5       29.98R WCI  23
LAMAR          FAIR      27  10  49 E7        29.98R WCI  19
SPRINGFIELD      N/A     27   8  44 E3        29.98R
$$




USA.gov is the U.S. government's official web portal to all federal, state and local government web resources and services.